TimeMDT,TemperatureF,Dew PointF,Humidity,Sea Level PressureIn,VisibilityMPH,Wind Direction,Wind SpeedMPH,Gust SpeedMPH,PrecipitationIn,Events,Conditions,WindDirDegrees,DateUTC
12:53 AM,51.1,43.0,74,30.07,10.0,WNW,5.8,-,N/A,,Clear,290,2012-08-12 06:53:00
1:53 AM,46.0,43.0,89,30.13,10.0,SSE,5.8,-,N/A,,Clear,160,2012-08-12 07:53:00
2:53 AM,45.0,42.1,90,30.14,10.0,South,6.9,-,N/A,,Clear,170,2012-08-12 08:53:00
3:53 AM,44.1,41.0,89,30.17,10.0,South,4.6,-,N/A,,Clear,190,2012-08-12 09:53:00
4:53 AM,43.0,41.0,93,30.16,10.0,SSE,6.9,-,N/A,,Clear,160,2012-08-12 10:53:00
5:53 AM,42.1,39.9,92,30.15,10.0,SSE,6.9,-,N/A,,Clear,160,2012-08-12 11:53:00
6:53 AM,45.0,41.0,86,30.16,10.0,SSE,4.6,-,N/A,,Clear,150,2012-08-12 12:53:00
7:53 AM,50.0,43.0,77,30.16,10.0,South,5.8,-,N/A,,Clear,180,2012-08-12 13:53:00
8:53 AM,55.0,42.1,62,30.16,10.0,South,4.6,-,N/A,,Clear,170,2012-08-12 14:53:00
9:53 AM,63.0,41.0,45,30.12,10.0,South,3.5,-,N/A,,Clear,190,2012-08-12 15:53:00
10:53 AM,69.1,36.0,30,30.09,10.0,Variable,3.5,-,N/A,,Clear,0,2012-08-12 16:53:00
11:53 AM,71.1,36.0,28,30.09,10.0,Variable,3.5,-,N/A,,Clear,0,2012-08-12 17:53:00
12:53 PM,73.9,35.1,24,30.06,10.0,NNE,5.8,-,N/A,,Clear,30,2012-08-12 18:53:00
1:53 PM,77.0,32.0,19,30.06,10.0,North,10.4,-,N/A,,Clear,10,2012-08-12 19:53:00
2:53 PM,77.0,33.1,20,30.05,10.0,Variable,4.6,-,N/A,,Clear,0,2012-08-12 20:53:00
3:53 PM,79.0,33.1,19,30.03,10.0,NNW,5.8,-,N/A,,Clear,330,2012-08-12 21:53:00
4:53 PM,79.0,33.1,19,30.03,10.0,ENE,10.4,16.1,N/A,,Clear,60,2012-08-12 22:53:00
5:53 PM,78.1,30.9,18,30.03,10.0,NE,5.8,-,N/A,,Clear,40,2012-08-12 23:53:00
6:53 PM,77.0,30.0,18,30.02,10.0,East,10.4,-,N/A,,Clear,80,2012-08-13 00:53:00
7:53 PM,70.0,36.0,29,30.04,10.0,SE,11.5,-,N/A,,Clear,130,2012-08-13 01:53:00
8:53 PM,64.0,37.0,37,30.06,10.0,ESE,11.5,-,N/A,,Clear,110,2012-08-13 02:53:00
9:53 PM,61.0,36.0,39,30.06,10.0,East,10.4,-,N/A,,Clear,100,2012-08-13 03:53:00
10:53 PM,61.0,36.0,39,30.04,10.0,ESE,9.2,-,N/A,,Clear,120,2012-08-13 04:53:00
11:53 PM,61.0,37.0,41,30.02,10.0,SE,13.8,-,N/A,,Clear,140,2012-08-13 05:53:00